Tracking 29747 objects as of 9-Oct-2024
HD Live streaming from Space Station
objects crossing your sky now

COSMOS 886 DEB

Track COSMOS 886 DEB now!
10-day predictions


NORAD ID: 9965
Int'l Code: 1976-126BF
Perigee: 928.3 km
Apogee: 2,328.9 km
Inclination: 65.8 °
Period: 118.7 minutes
Semi major axis: 7999 km
RCS: 0.145 m2 (medium)
Launch date: December 27, 1976
Source: Commonwealth of Independent States (former USSR) (CIS)
Launch site: TYURATAM MISSILE AND SPACE COMPLEX (TTMTR)

Note: This is SATELLITE DEBRIS
Your satellite tracking list
Your tracking list is empty




NASA's NSSDC Master Catalog

Two Line Element Set (TLE):
1 09965U 76126BF  24283.54994500 -.00000009  00000-0  13330-3 0  9999
2 09965  65.7991  51.9239 0875462 123.4251 328.3929 12.13388793 93527
Source of the keplerian elements: AFSPC